{"data":{"norad_id":49060,"epoch":"2026-09-20T22:26:09.591936Z","epoch_age_seconds":63537,"freshness":"FRESH","line1":"1 49060U 21070B   26263.93483324  .00000167  00000+0  11479-3 0  9992","line2":"2 49060  89.0116 208.1480 0004737 153.6451 206.4967 13.94732927261319","mean_motion":13.94732927,"eccentricity":0.0004737,"inclination_deg":89.0116,"raan_deg":208.148,"arg_perigee_deg":153.6451,"mean_anomaly_deg":206.4967,"bstar":0.00011479,"rev_number":26131,"period_min":103.24557283503,"perigee_km":908.63808458558,"apogee_km":915.54484703409,"semimajor_km":7290.2284658098,"source":"CELESTRAK","updated_at":"2026-09-21T09:00:07.944942Z"}}